Temperature
18 18 18 18 18 18 18 18 18 18 18 18 18 18 18 18 18 18 18 18 18 17 17 17 17 17 17 17 17 17 16 16 16 16 16 16 16 16 16 16 16 16 16
18 18 18 18 18 18 18 18 18 18 18 18 18 18 18 18 18 18 18 18 18 17 17 17 17 17 17 17 17 17 16 16 16 16 16 16 16 16 16 16 16 16 15
18 18 18 18 18 18 18 18 18 18 18 18 18 18 18 18 17 17 17 17 17 17 17 17 17 17 17 17 17 17 16 16 16 16 16 16 16 16 16 16 16 16 15
18 18 18 18 18 18 18 18 18 18 18 18 18 18 18 18 17 17 17 17 17 17 17 17 17 17 17 17 17 17 17 16 16 16 16 16 16 16 16 16 16 16 15
18 19 18 18 18 18 18 18 18 18 18 18 18 18 18 18 18 17 17 17 17 17 17 17 17 17 17 17 17 17 16 16 16 16 16 16 16 16 16 16 16 16 16
19 19 18 18 18 18 18 18 18 18 18 18 18 18 18 18 18 18 17 17 17 17 17 17 17 17 17 17 17 17 17 16 16 16 16 16 16 16 16 16 16 16 15
19 19 18 18 18 18 18 18 18 18 18 18 18 18 18 18 18 18 18 17 17 17 17 17 17 17 17 17 17 17 17 16 16 16 16 16 16 16 16 16 15 15 15
19 19 19 18 18 18 18 18 18 18 18 18 18 18 18 18 18 18 18 18 17 17 17 17 17 17 17 17 17 17 17 17 16 16 16 16 16 16 16 15 15 15 15
19 18 19 18 18 18 18 18 18 18 18 18 18 18 18 18 18 18 18 18 18 18 17 17 17 17 17 17 17 17 17 16 16 16 16 16 16 16 16 15 15 15 15
19 19 18 18 18 18 18 18 18 18 18 18 18 18 18 18 18 18 18 18 18 18 18 17 17 17 17 17 17 17 17 17 16 16 16 16 16 16 16 15 15 15 15
18 18 18 18 18 18 18 18 18 18 18 18 18 18 18 18 18 18 18 18 18 18 18 18 18 17 17 17 17 17 17 17 16 16 16 16 16 16 16 15 15 15 15
18 18 18 18 18 18 18 18 18 18 18 18 18 18 18 18 18 18 18 18 18 18 18 18 18 18 17 17 17 17 17 17 17 16 16 16 16 16 16 15 15 15 15
18 18 18 18 18 18 18 18 18 18 18 18 18 18 18 18 18 18 18 18 19 19 18 18 18 18 18 17 17 17 17 17 17 17 16 16 16 16 16 15 15 15 15
18 18 18 18 18 18 18 18 18 18 18 18 18 18 18 18 18 18 18 18 18 19 19 18 18 18 18 18 17 17 17 17 17 17 17 16 16 16 16 16 16 16 15
18 18 18 18 18 18 18 18 18 18 18 18 18 18 18 18 18 18 18 18 18 18 18 19 19 18 18 18 18 17 17 17 17 17 17 17 17 16 16 16 16 16 16
18 18 18 18 18 18 18 17 17 17 17 17 17 17 17 17 18 18 18 18 18 18 18 18 18 18 18 18 18 17 17 17 17 17 17 17 17 17 16 16 16 16 16
18 18 18 18 18 18 17 17 17 17 17 17 17 17 17 17 17 17 17 18 18 18 18 18 18 18 18 18 18 17 17 17 17 17 17 17 17 17 17 16 16 16 16
18 18 18 18 17 17 17 17 17 17 17 17 17 17 17 17 17 17 17 17 17 18 17 18 18 18 18 18 17 17 17 17 17 17 17 17 17 17 17 16 16 16 16
18 18 18 18 17 17 17 17 17 17 17 17 17 17 17 17 17 17 17 17 17 17 17 17 17 17 17 17 17 17 17 17 17 17 17 17 17 17 17 16 16 16 16
18 18 18 17 17 17 17 17 17 17 17 17 17 17 17 17 17 17 17 17 17 17 17 17 17 17 17 17 17 17 17 17 16 16 17 17 17 17 16 16 16 16 16
17 17 17 17 17 17 17 17 17 17 17 17 17 17 17 17 17 17 16 17 16 16 16 16 16 16 17 17 17 16 16 16 16 16 16 16 16 16 16 16 16 16 16
17 17 17 17 17 17 17 17 17 17 17 17 16 16 16 16 17 17 16 16 16 16 16 16 16 16 16 16 16 16 16 16 16 16 16 16 16 16 16 16 16 16 15
17 17 17 17 17 17 17 17 17 17 17 16 16 16 16 16 16 16 16 16 16 16 16 16 16 16 16 16 16 16 16 16 16 16 16 16 16 16 15 15 15 15 15
17 17 17 17 17 17 17 17 17 17 16 16 16 16 16 16 16 16 16 16 16 16 16 16 16 16 16 15 15 15 15 15 15 15 15 15 15 15 15 15 15 15 15
16 16 16 17 17 17 17 17 17 17 16 16 16 16 16 16 16 16 16 15 15 16 15 15 15 15 15 15 15 15 15 14 14 14 15 14 14 14 14 14 14 14 14
16 16 16 16 16 16 16 16 16 16 16 16 16 16 16 16 16 15 15 15 15 15 15 15 15 15 15 15 14 14 14 14 14 14 14 14 14 14 14 14 14 14 13
Wind_Speed
4 5 4 6 8 8 6 3 3 4 3 3 3 5 5 8 13 13 12 13 12 11 11 10 10 10 9 9 9 8 8 8 8 7 7 7 7 7 6 6 6 6 5
6 5 4 3 5 7 6 4 5 4 2 2 2 3 4 7 11 14 13 12 12 11 10 10 10 9 9 9 8 8 8 7 7 7 6 6 6 6 6 5 5 5 4
9 6 4 3 4 7 7 4 4 4 3 3 2 3 4 4 8 12 14 13 12 11 11 10 10 9 9 9 9 8 8 8 8 7 7 7 7 6 6 5 5 5 5
10 7 4 4 6 6 5 3 2 3 2 3 3 2 3 3 5 8 11 13 13 12 12 12 11 10 10 9 9 9 9 9 8 8 8 7 7 7 6 6 6 5 5
10 6 4 4 7 5 4 5 4 3 3 3 3 3 3 3 3 5 6 9 12 13 13 14 13 12 11 10 10 10 10 10 10 9 9 8 8 7 7 7 7 7 7
9 7 4 6 6 4 3 2 5 3 2 3 3 4 3 3 3 3 4 6 10 12 14 14 13 12 13 12 12 11 11 10 10 10 10 9 9 8 8 8 8 8 8
10 6 4 6 4 4 5 5 4 4 2 2 1 2 3 4 4 4 4 4 6 9 12 14 14 13 12 14 14 13 12 11 11 11 10 10 10 9 9 8 8 8 8
10 9 5 6 5 4 5 4 4 3 3 4 2 2 2 2 3 6 5 5 5 6 8 12 13 13 13 13 13 15 14 13 12 11 11 11 11 10 10 9 9 9 9
10 8 8 6 6 6 6 6 5 5 4 3 3 2 3 3 2 2 5 5 5 5 5 8 12 13 14 14 14 16 16 15 14 13 12 12 11 11 11 10 10 10 10
9 9 8 7 6 5 6 7 7 5 4 3 3 3 2 2 2 1 2 3 6 6 5 7 8 12 14 14 15 16 18 17 15 14 13 13 12 12 12 11 11 11 11
8 9 8 7 6 6 6 7 6 6 5 5 3 3 3 3 3 3 3 3 4 5 6 5 5 9 13 14 15 17 20 19 17 15 14 13 13 13 13 12 12 12 12
7 9 9 7 7 6 6 6 6 7 5 5 4 3 3 3 3 3 3 4 4 5 6 5 5 6 11 14 15 17 21 21 19 17 16 15 14 14 13 13 13 13 13
7 9 9 7 7 6 6 6 7 7 7 6 5 4 4 4 3 3 3 3 3 3 4 4 4 6 10 12 13 18 20 22 21 19 18 17 16 15 14 14 14 14 14
7 8 9 9 8 8 8 7 7 7 7 7 8 6 4 4 3 3 3 3 2 3 3 5 4 6 7 10 14 19 16 21 21 20 19 18 17 16 16 15 15 15 14
7 8 9 9 9 9 8 8 7 7 7 7 7 7 6 5 4 3 3 3 3 3 4 4 3 5 7 8 14 15 13 20 22 21 20 20 19 18 17 16 15 15 15
7 7 7 8 8 8 8 8 7 7 8 7 6 6 7 5 4 4 4 4 3 4 3 3 3 3 4 6 13 12 11 17 22 22 22 21 20 19 18 17 16 16 15
7 8 8 8 8 9 8 8 8 8 9 8 8 7 7 6 4 4 4 4 4 3 4 3 2 2 4 3 6 8 10 11 14 22 23 23 22 21 19 18 17 16 16
8 8 8 8 9 9 9 9 9 9 8 9 8 8 8 8 7 5 5 5 4 4 4 4 2 2 3 4 5 5 7 10 11 18 25 25 23 22 20 20 19 18 17
7 8 8 8 8 8 8 9 9 8 8 8 8 8 8 8 8 7 6 6 4 5 4 4 4 3 3 4 4 5 6 5 9 11 20 23 23 22 21 21 20 19 18
7 8 8 8 8 8 8 9 9 8 8 7 7 8 8 9 9 8 8 7 5 4 4 4 4 4 4 4 4 4 5 4 5 6 7 12 18 22 22 21 20 20 19
7 7 7 8 8 8 8 8 8 9 8 7 7 7 8 9 9 8 7 5 6 5 4 4 4 4 4 3 4 4 4 4 4 4 3 4 7 9 13 18 19 20 20
4 5 5 6 7 7 8 9 7 6 6 7 8 7 8 8 9 10 9 8 6 6 5 4 4 4 4 3 2 3 3 3 3 2 2 4 3 4 6 10 15 19 20
3 3 3 4 5 4 5 7 8 5 5 6 7 7 8 8 8 7 7 8 8 9 8 5 5 4 3 2 2 3 3 4 4 3 1 4 3 4 4 6 10 16 17
2 2 3 3 3 4 6 7 7 5 5 5 5 6 7 5 5 4 5 6 6 6 7 6 5 4 3 2 2 4 4 4 4 3 2 4 4 4 5 3 5 11 14
2 2 2 2 2 2 3 5 6 4 4 4 4 4 5 5 5 5 4 4 4 4 5 7 6 5 3 2 1 1 2 3 4 4 3 3 4 4 3 2 4 9 12
1 1 1 1 1 1 2 4 5 3 3 3 2 2 2 3 5 6 5 4 4 4 3 3 3 3 3 3 3 3 3 4 4 3 2 2 3 2 3 2 1 2 6
Wind_Direction
140 133 145 158 162 151 156 169 139 123 125 121 111 100 105 107 119 120 134 144 143 145 146 149 151 151 152 152 153 154 153 151 149 150 150 151 151 149 146 144 143 143 144
134 134 143 161 152 144 150 147 135 129 130 93 91 104 104 109 121 131 142 149 153 156 158 159 161 163 164 165 166 166 166 165 163 163 167 168 167 165 165 164 164 166 166
142 151 155 171 145 135 131 129 133 137 156 145 128 116 102 102 121 135 146 154 161 168 170 170 172 175 177 178 180 181 181 179 179 180 182 184 183 182 182 183 186 186 185
154 163 159 164 145 142 144 141 164 155 145 141 155 155 124 123 126 143 153 161 166 170 177 181 181 184 188 190 191 193 192 191 193 194 195 196 195 194 194 195 199 201 202
165 176 159 148 158 157 167 174 157 150 150 162 171 157 152 150 156 170 164 166 168 165 172 184 188 191 196 200 201 202 202 201 202 202 203 202 201 203 206 208 211 213 215
174 181 161 158 174 165 162 135 128 130 149 199 208 154 157 151 177 168 190 176 173 175 176 178 185 196 203 204 205 207 206 205 205 208 209 210 210 210 212 215 217 220 222
177 186 174 159 183 171 163 160 153 163 191 207 180 138 163 184 180 178 201 185 185 184 175 175 185 189 193 205 208 207 208 208 208 210 210 210 211 213 216 218 220 222 226
178 187 192 173 182 172 171 173 170 174 201 200 190 159 164 207 217 201 186 195 190 185 185 188 190 188 192 186 202 205 207 208 207 208 209 210 211 214 216 219 223 225 228
187 191 187 190 180 184 178 185 184 192 205 208 203 177 174 200 208 223 204 193 182 186 196 193 191 192 193 185 189 201 206 209 209 210 211 212 213 215 219 222 224 227 230
192 194 191 191 190 198 177 190 191 196 200 217 218 218 206 167 173 202 232 199 194 199 204 209 199 190 193 185 186 192 201 206 209 211 212 212 214 217 221 223 226 229 232
197 198 192 189 198 206 195 198 177 193 198 216 219 208 209 202 217 192 207 213 216 209 206 212 193 188 191 186 185 192 197 202 207 210 212 213 215 219 224 227 230 233 236
201 202 196 194 199 206 203 197 185 193 211 222 234 228 206 204 218 217 207 208 213 217 203 200 196 189 192 192 196 194 194 198 204 208 212 216 218 221 225 229 233 236 240
198 199 203 197 202 203 205 200 198 203 205 213 225 239 234 225 217 222 221 227 223 220 197 202 201 195 202 190 189 186 190 196 203 207 212 216 220 223 227 231 235 239 242
202 194 198 198 201 202 209 202 206 209 205 206 220 222 243 241 225 223 224 235 247 238 212 216 198 193 200 181 178 181 191 199 204 209 213 217 220 224 228 233 237 241 244
202 196 199 200 201 204 207 198 211 213 202 204 217 215 222 241 234 234 235 228 224 239 245 227 200 193 184 168 172 187 192 202 206 211 215 218 222 225 229 235 238 241 244
209 199 204 204 201 203 206 205 210 214 208 209 214 215 212 229 233 226 238 237 230 228 246 244 221 195 175 181 178 192 203 204 209 213 217 220 223 225 229 233 236 240 242
207 203 210 208 203 205 208 207 214 213 213 212 215 216 212 223 236 232 231 236 234 231 241 260 243 179 177 179 173 202 204 200 209 217 218 220 221 223 226 230 234 238 240
208 205 205 208 209 207 206 208 215 214 214 216 217 221 216 217 217 233 239 239 230 225 227 245 253 221 203 192 182 205 218 222 218 220 217 218 219 221 223 226 230 234 236
209 207 202 207 212 210 206 208 213 217 215 218 219 222 221 220 218 222 228 235 233 235 215 222 244 237 222 212 196 217 240 244 244 235 215 217 220 222 224 226 230 233 236
207 209 207 207 211 214 214 212 211 215 216 219 221 222 220 219 218 219 227 227 230 237 232 226 238 243 233 219 198 212 240 238 245 252 217 213 218 223 225 227 229 231 233
212 209 208 211 211 214 218 212 213 217 216 223 228 226 224 220 215 212 222 218 224 227 230 227 231 235 231 214 212 219 237 241 241 238 230 212 202 214 226 230 231 233 233
214 211 212 214 215 223 208 198 203 216 206 213 223 226 230 219 214 212 213 215 214 223 228 232 238 239 239 226 210 223 242 250 256 245 249 261 221 216 223 216 219 224 227
204 206 216 219 218 216 188 183 192 211 218 222 226 225 233 230 206 204 206 215 221 223 215 221 240 251 258 255 236 244 255 264 261 272 269 264 261 260 252 239 213 214 221
194 209 215 221 214 215 189 181 186 211 234 237 234 230 229 231 228 204 206 212 218 218 208 210 223 240 253 268 258 249 252 262 261 258 240 256 262 261 268 239 225 212 210
195 205 201 209 216 216 190 179 176 207 223 230 237 247 237 215 203 201 205 217 222 224 214 209 206 207 204 233 274 277 262 255 262 259 240 236 249 255 262 249 232 223 216
174 179 160 160 177 167 161 169 178 213 220 217 224 234 231 200 189 184 196 206 224 234 243 224 192 206 218 235 228 222 242 256 262 264 270 254 254 262 275 264 250 243 236
Height
1555 1557 1559 1560 1562 1564 1566 1567 1569 1570 1571 1573 1574 1575 1575 1576 1576 1577 1578 1579 1580 1581 1582 1583 1584 1585 1586 1587 1588 1589 1590 1591 1592 1593 1594 1595 1596 1596 1597 1598 1598 1599 1600
1556 1557 1559 1561 1563 1565 1566 1568 1569 1570 1572 1573 1575 1575 1577 1577 1578 1577 1579 1580 1580 1581 1582 1583 1584 1585 1586 1587 1588 1589 1590 1591 1592 1593 1594 1595 1595 1596 1597 1598 1598 1599 1600
1555 1557 1560 1562 1563 1565 1566 1568 1569 1571 1572 1574 1575 1576 1577 1578 1579 1579 1579 1580 1581 1582 1583 1584 1585 1586 1586 1587 1588 1589 1590 1591 1592 1593 1593 1594 1595 1596 1597 1597 1598 1599 1599
1555 1557 1559 1561 1563 1565 1566 1568 1569 1571 1572 1573 1575 1576 1577 1578 1579 1579 1580 1580 1581 1582 1583 1584 1585 1585 1586 1587 1588 1589 1589 1590 1591 1592 1593 1593 1594 1595 1596 1596 1597 1598 1598
1554 1556 1559 1560 1562 1564 1566 1568 1569 1571 1572 1573 1574 1575 1576 1577 1578 1580 1580 1581 1581 1582 1583 1583 1584 1585 1585 1586 1587 1588 1588 1589 1590 1591 1592 1592 1593 1594 1595 1595 1596 1596 1597
1553 1555 1557 1559 1561 1564 1565 1567 1568 1570 1571 1573 1574 1575 1576 1577 1578 1579 1580 1581 1581 1582 1582 1583 1583 1584 1584 1585 1586 1586 1587 1588 1589 1589 1590 1591 1592 1592 1593 1594 1594 1595 1596
1551 1554 1556 1558 1560 1562 1564 1566 1567 1569 1570 1572 1573 1574 1575 1576 1577 1578 1579 1580 1581 1581 1582 1582 1582 1583 1583 1584 1584 1585 1586 1586 1587 1588 1589 1589 1590 1591 1592 1592 1593 1593 1594
1549 1552 1554 1555 1558 1560 1562 1564 1565 1567 1569 1570 1572 1573 1575 1577 1576 1577 1577 1578 1579 1580 1580 1581 1581 1581 1582 1582 1583 1584 1584 1585 1585 1586 1587 1587 1588 1589 1590 1590 1591 1591 1592
1546 1549 1551 1553 1555 1557 1559 1561 1563 1565 1567 1569 1570 1572 1573 1573 1574 1575 1576 1576 1577 1578 1578 1579 1580 1580 1580 1580 1581 1582 1582 1583 1583 1584 1585 1585 1586 1587 1587 1588 1589 1589 1589
1543 1546 1548 1550 1553 1555 1557 1558 1560 1563 1565 1566 1568 1569 1570 1571 1572 1573 1574 1574 1575 1576 1577 1577 1578 1578 1578 1578 1579 1580 1580 1581 1582 1582 1582 1583 1584 1584 1585 1586 1586 1587 1587
1540 1542 1544 1547 1549 1552 1554 1556 1558 1560 1561 1563 1565 1567 1568 1569 1570 1571 1571 1573 1573 1574 1574 1575 1576 1576 1576 1577 1577 1577 1578 1579 1579 1580 1580 1581 1581 1582 1583 1583 1584 1584 1584
1536 1539 1541 1543 1545 1548 1550 1552 1554 1556 1558 1560 1562 1564 1565 1566 1567 1569 1569 1570 1570 1571 1571 1572 1573 1573 1574 1574 1575 1575 1576 1576 1577 1577 1578 1578 1579 1579 1580 1581 1581 1581 1582
1532 1534 1537 1539 1542 1544 1547 1549 1551 1553 1555 1556 1558 1560 1562 1563 1565 1566 1567 1567 1568 1568 1569 1569 1570 1571 1571 1572 1572 1573 1573 1574 1574 1575 1575 1576 1576 1577 1577 1578 1578 1579 1579
1528 1530 1533 1535 1538 1540 1542 1545 1547 1549 1551 1552 1554 1556 1558 1560 1561 1563 1564 1565 1565 1566 1566 1566 1567 1567 1568 1568 1569 1570 1570 1571 1571 1572 1572 1573 1573 1574 1574 1575 1575 1575 1576
1525 1527 1529 1531 1533 1536 1538 1540 1542 1544 1546 1548 1550 1552 1554 1556 1558 1559 1560 1562 1563 1563 1563 1563 1564 1564 1565 1566 1566 1567 1567 1568 1568 1568 1569 1569 1570 1570 1571 1571 1572 1572 1572
1521 1523 1525 1527 1529 1532 1534 1536 1538 1540 1542 1544 1546 1548 1549 1551 1553 1555 1556 1557 1558 1559 1560 1560 1561 1562 1562 1563 1563 1564 1564 1565 1565 1565 1566 1566 1566 1567 1567 1568 1568 1568 1568
1516 1518 1520 1523 1525 1527 1529 1531 1533 1536 1538 1539 1542 1543 1545 1547 1549 1550 1552 1553 1555 1556 1556 1557 1558 1559 1559 1560 1560 1561 1561 1561 1561 1562 1562 1562 1563 1563 1563 1564 1564 1564 1564
1511 1513 1516 1518 1520 1522 1525 1527 1529 1531 1533 1535 1537 1539 1541 1543 1544 1546 1547 1549 1550 1551 1552 1553 1554 1555 1556 1556 1557 1557 1558 1558 1558 1558 1558 1559 1559 1559 1559 1560 1560 1560 1560
1507 1509 1511 1513 1516 1518 1520 1522 1525 1527 1529 1530 1532 1535 1536 1538 1539 1541 1542 1544 1545 1547 1548 1549 1550 1551 1552 1553 1553 1553 1554 1554 1554 1554 1554 1554 1555 1555 1555 1555 1555 1555 1555
1504 1506 1507 1509 1512 1514 1516 1518 1520 1522 1525 1526 1528 1530 1532 1533 1535 1536 1538 1539 1541 1542 1544 1545 1546 1547 1548 1548 1549 1549 1550 1550 1550 1551 1550 1550 1550 1550 1550 1550 1550 1550 1549
1501 1503 1504 1506 1508 1510 1512 1515 1517 1518 1520 1522 1524 1526 1527 1529 1530 1532 1533 1534 1536 1538 1539 1540 1541 1542 1543 1544 1544 1545 1545 1545 1546 1547 1546 1546 1546 1545 1545 1545 1545 1544 1544
1498 1500 1502 1503 1505 1507 1509 1511 1513 1515 1516 1518 1519 1521 1523 1524 1526 1527 1529 1530 1532 1533 1534 1536 1537 1538 1538 1539 1540 1541 1541 1541 1541 1542 1542 1541 1541 1540 1540 1540 1539 1539 1539
1496 1497 1499 1500 1502 1503 1506 1508 1509 1511 1512 1513 1515 1516 1518 1519 1521 1522 1523 1525 1527 1528 1530 1531 1532 1533 1534 1535 1536 1536 1536 1537 1536 1537 1537 1536 1536 1535 1536 1534 1534 1534 1533
1494 1495 1496 1498 1499 1500 1502 1504 1506 1507 1508 1510 1511 1512 1513 1514 1516 1517 1519 1520 1521 1523 1524 1525 1526 1528 1529 1530 1530 1531 1531 1531 1531 1532 1532 1531 1530 1530 1531 1530 1529 1529 1528
1491 1492 1493 1495 1496 1497 1499 1500 1502 1503 1504 1505 1506 1507 1508 1509 1511 1512 1514 1515 1517 1518 1519 1520 1521 1522 1523 1524 1525 1526 1526 1526 1525 1525 1526 1526 1525 1525 1525 1524 1524 1523 1522
1489 1490 1491 1492 1493 1494 1496 1497 1499 1500 1501 1502 1503 1503 1504 1505 1506 1508 1510 1511 1512 1513 1515 1516 1516 1517 1518 1518 1519 1520 1520 1520 1520 1520 1520 1521 1520 1519 1519 1518 1518 1517 1517